Creek Data

    Home     View Charts     View Raw Data     Messages

ID Distance Battery Voltage Battery Current Internal Temp Internal Humidity External Temp Solar Input rssi snr Time Stamp Record
67478 13.9 3.76 0 84 48 74 5.1 -73 8 02/27/2026 02:00 PM 50322
67477 13.9 3.76 0 84 48 73 5.1 -73 7 02/27/2026 01:45 PM 50321
67476 13.9 3.76 0 84 47 73 5.1 -73 7 02/27/2026 01:30 PM 50320
67475 13.9 3.76 0 82 47 73 5.1 -73 7 02/27/2026 01:15 PM 50319
67474 13.9 3.76 0 81 47 71 5.1 -73 8 02/27/2026 01:00 PM 50318
67473 13.9 3.76 0 80 47 71 5.1 -73 8 02/27/2026 12:45 PM 50317
67472 13.9 3.76 0 79 47 70 5.1 -72 7 02/27/2026 12:30 PM 50316
67471 13.9 3.84 0 77 48 69 5.1 -72 8 02/27/2026 12:15 PM 50315
67470 13.9 3.79 0 77 47 69 5.1 -72 8 02/27/2026 12:00 PM 50314
67469 13.9 3.76 0 76 47 69 5.1 -73 7 02/27/2026 11:45 AM 50313
67468 13.9 3.76 0 75 47 68 5.1 -72 7 02/27/2026 11:30 AM 50312
67467 13.9 4.06 0 74 47 67 5.1 -72 8 02/27/2026 11:15 AM 50311
67466 13.9 3.76 0 72 47 66 5.1 -71 8 02/27/2026 11:00 AM 50310
67465 13.9 3.76 0 72 47 67 5.1 -71 7 02/27/2026 10:45 AM 50309
67464 14.0 3.91 0 71 47 65 5.1 -70 7 02/27/2026 10:30 AM 50308
67463 14.0 3.76 0 70 46 65 5.1 -71 7 02/27/2026 10:15 AM 50307
67462 13.9 3.76 0 68 47 65 5.1 -70 7 02/27/2026 10:00 AM 50306
67461 14.0 3.78 0 67 46 67 5.1 -70 7 02/27/2026 09:45 AM 50305
67460 13.9 3.76 0 65 47 63 5.1 -71 8 02/27/2026 09:30 AM 50304
67459 13.9 3.76 0 62 48 64 5.1 -71 8 02/27/2026 09:15 AM 50303
67458 13.9 3.76 0 60 49 61 5.1 -71 7 02/27/2026 09:00 AM 50302
67457 13.8 3.76 0 59 49 61 5.1 -71 7 02/27/2026 08:45 AM 50301
67456 13.7 3.76 0 57 49 60 5.1 -71 8 02/27/2026 08:30 AM 50300
67455 13.7 3.76 0 55 49 58 5.1 -70 8 02/27/2026 08:15 AM 50299
67454 13.7 3.76 0 55 49 57 5.1 -70 7 02/27/2026 08:00 AM 50298